This is the latest recevied weather packets stored in our database for station/object K4AMF. If no packets are shown the sender has not sent any weather packets the latest 10 day(s).
| Time | Temp. | Humidity | Pressure | Rain* | Wind** | Luminosity | Snow |
|---|---|---|---|---|---|---|---|
| 1777910227 | 23.89° C | 45% | 1019.4 hPa | 0 mm | - | 769 W/m² | - |
| 1777909924 | 23.89° C | 45% | 1019.7 hPa | 0 mm | - | 743 W/m² | - |
| 1777909621 | 24.44° C | 44% | 1019.6 hPa | 0 mm | - | 714 W/m² | - |
| 1777909319 | 24.44° C | 45% | 1019.6 hPa | 0 mm | - | 705 W/m² | - |
| 1777909016 | 23.89° C | 47% | 1019.7 hPa | 0 mm | - | 712 W/m² | - |
| 1777908714 | 23.89° C | 46% | 1019.5 hPa | 0 mm | - | 729 W/m² | - |
| 1777908410 | 23.89° C | 47% | 1019.3 hPa | 0 mm | - | 745 W/m² | - |
| 1777908107 | 23.33° C | 47% | 1019.5 hPa | 0 mm | - | 753 W/m² | - |
| 1777907803 | 23.33° C | 47% | 1019.4 hPa | 0 mm | - | 786 W/m² | - |
| 1777907498 | 23.33° C | 47% | 1019.4 hPa | 0 mm | - | 799 W/m² | - |
| 1777907196 | 23.89° C | 47% | 1019.7 hPa | 0 mm | - | 792 W/m² | - |
| 1777906893 | 23.89° C | 47% | 1019.8 hPa | 0 mm | - | 789 W/m² | - |
| 1777906590 | 23.89° C | 47% | 1019.6 hPa | 0 mm | - | 816 W/m² | - |
| 1777906285 | 22.78° C | 48% | 1019.4 hPa | 0 mm | - | 807 W/m² | - |
| 1777905982 | 23.33° C | 48% | 1019.6 hPa | 0 mm | - | 748 W/m² | - |
| 1777905679 | 22.78° C | 49% | 1019.5 hPa | 0 mm | - | 736 W/m² | - |
| 1777905375 | 23.33° C | 49% | 1019.7 hPa | 0 mm | - | 764 W/m² | - |
| 1777905074 | 23.33° C | 49% | 1019.7 hPa | 0 mm | - | 738 W/m² | - |
| 1777904771 | 23.33° C | 48% | 1019.7 hPa | 0 mm | - | 672 W/m² | - |
| 1777904468 | 22.78° C | 49% | 1019.7 hPa | 0 mm | - | 661 W/m² | - |
| 1777904164 | 22.78° C | 50% | 1019.6 hPa | 0 mm | - | 695 W/m² | - |
| 1777903861 | 22.22° C | 51% | 1019.6 hPa | 0 mm | - | 705 W/m² | - |
| 1777903557 | 22.78° C | 49% | 1019.8 hPa | 0 mm | - | 704 W/m² | - |
| 1777903254 | 22.78° C | 51% | 1019.8 hPa | 0 mm | - | 700 W/m² | - |
| 1777902950 | 22.78° C | 50% | 1019.7 hPa | 0 mm | - | 682 W/m² | - |
* Rain latest hour (hover to see other rain measurements)
** Current wind speed in m/s (hover to see current wind gust speed)